Location: Milton Keynes
(52.0316°N, 0.7531°W)
Time: 00:41:33
(UTC+00:00)

ISS - Pass Details

Date: 01 February 2019
Orbit: 403 x 411 km, 51.6° (Epoch: 20 February)

Event Time Altitude Azimuth Distance (km) Brightness Sun altitude
Rises 19:29:12 0° 280° (W) 2,340 1.4 -24.4°
Reaches altitude 10° 19:31:18 10° 277° (W) 1,479 0.1 -24.8°
Enters shadow 19:33:15 32° 265° (W) 736 -2.0 -25.1°
